Location: Oriwa
(40.7500°S, 175.3333°E)
Time: 14:10:11
(UTC+00:00)

NPP - Pass Details

Date: 03 February 2023
Orbit: 826 x 828 km, 98.8° (Epoch: 31 March)

Event Time Altitude Azimuth Distance (km) Brightness Sun altitude
Exits shadow 13:30:29 47° 218° (SW) 1,096 4.4 -31.2°
Drops below altitude 10° 13:34:26 10° 199° (SSW) 2,462 6.7 -31.0°
Sets 13:36:50 0° 196° (SSW) 3,403 7.6 -30.8°
